EHI
0 0 1 8 24 47 67 77 82 85 87 87 83 80 76 68 55 37 18 6 2 0 0 0 0 0 0 0 0 0 0 0 0 0 0 0 0 0 0 0 0 0 0
1 0 1 9 27 49 65 73 75 75 76 77 75 73 68 59 46 29 13 5 2 0 0 0 0 0 0 0 0 0 0 0 0 0 0 0 0 0 0 0 0 0 0
3 1 2 11 30 52 65 68 67 63 61 59 55 52 47 38 27 15 6 2 1 0 0 0 0 0 0 0 0 0 0 0 0 0 0 0 0 0 0 0 0 0 0
4 2 3 12 30 49 62 66 63 56 49 41 33 27 24 18 11 5 2 1 0 0 0 0 0 0 0 0 0 0 0 0 0 0 0 0 0 0 0 0 0 0 0
4 2 4 14 28 45 59 65 63 54 43 32 21 15 12 8 3 1 0 0 0 0 0 0 0 0 0 0 0 0 0 0 0 0 0 0 0 0 0 0 0 0 0
5 3 6 17 31 45 57 63 61 51 40 28 17 11 8 4 1 0 0 0 0 0 0 0 0 0 0 0 0 0 0 0 0 0 0 0 0 0 0 0 0 0 0
9 5 7 18 32 43 51 53 52 45 34 22 13 9 5 1 0 0 0 0 0 0 0 0 0 0 0 0 0 0 0 0 0 0 0 0 0 0 0 0 0 0 0
10 7 8 14 24 33 36 36 35 34 28 18 9 5 2 0 0 0 0 0 0 0 0 0 0 0 0 0 0 0 0 0 0 0 0 0 0 0 0 0 0 0 0
6 6 7 10 15 20 22 22 22 23 21 15 8 3 1 0 0 0 0 0 0 0 0 0 0 0 0 1 1 1 2 1 0 0 0 0 0 0 0 0 1 1 0
2 3 5 8 11 13 14 14 15 16 14 11 8 4 2 1 1 0 0 0 0 0 0 0 0 0 1 3 3 4 4 3 1 0 0 0 0 0 0 0 1 2 1
4 3 3 5 8 10 11 10 11 11 10 9 8 6 4 3 2 1 1 0 0 0 0 0 1 1 3 4 4 5 6 4 2 1 0 0 0 0 0 0 1 2 3
8 5 3 2 4 8 9 8 6 6 6 7 7 8 6 4 4 4 4 2 1 1 1 1 2 3 4 5 5 7 8 6 3 2 0 0 0 0 0 0 1 2 2
13 9 5 3 4 6 6 5 5 4 4 4 5 7 7 6 6 6 6 5 4 3 3 3 4 5 5 4 5 7 8 7 5 2 0 0 0 0 0 0 0 1 1
21 16 9 5 5 5 4 5 6 4 3 3 3 4 7 8 7 7 7 6 5 4 4 3 3 4 4 4 5 6 7 7 4 2 0 0 0 0 0 0 0 0 0
21 15 8 5 5 4 3 4 4 4 3 2 2 3 6 8 7 7 7 5 4 4 3 3 2 3 4 5 5 5 5 5 3 1 0 0 1 1 1 0 0 0 0
12 7 3 2 2 2 1 1 2 1 1 1 1 1 4 5 5 5 5 3 2 2 3 2 2 2 4 5 4 4 4 3 2 1 0 1 1 1 2 2 1 1 1
4 2 1 0 0 0 0 0 1 0 0 0 0 0 1 1 1 2 1 1 1 1 1 1 1 2 3 4 3 2 2 1 1 0 0 1 1 1 2 5 5 5 5
1 1 1 0 0 0 0 0 0 0 0 0 0 0 0 0 0 0 0 0 0 0 0 0 0 1 1 2 2 2 2 1 0 0 0 1 1 1 2 6 8 8 9
0 0 0 0 0 0 0 0 0 0 0 0 0 0 0 0 0 0 0 0 0 0 0 0 0 0 0 1 1 1 1 0 0 0 0 0 1 1 2 4 6 7 8
0 0 0 0 0 0 0 0 0 0 0 0 0 0 0 0 0 0 0 0 0 0 0 0 0 0 0 0 0 0 0 0 0 0 0 0 0 0 1 2 4 5 5
0 0 0 0 0 0 0 0 0 0 0 0 0 0 0 0 0 0 0 0 0 0 0 0 0 0 0 0 0 0 0 0 0 0 0 0 0 0 0 0 2 3 4
0 0 0 0 0 0 0 0 0 0 0 0 0 0 0 0 0 0 0 0 0 0 0 0 0 0 0 0 0 0 0 0 0 0 0 0 0 0 0 0 0 1 1
0 0 0 0 0 0 0 0 0 0 0 0 0 0 0 0 0 0 0 0 0 0 0 0 0 0 0 0 0 0 0 0 0 0 0 0 0 0 0 0 1 1 0
0 0 0 0 0 0 0 0 0 0 0 0 0 0 0 0 0 0 0 0 0 0 0 0 0 0 0 0 0 0 0 0 0 0 0 0 0 0 0 0 1 1 1
0 0 0 0 0 0 0 0 0 0 0 0 0 0 0 0 0 0 0 0 0 0 0 0 0 0 0 0 0 0 0 0 0 0 0 0 0 0 0 0 1 1 0
0 0 0 0 0 0 0 0 0 0 0 0 0 0 0 0 0 0 0 0 0 0 0 0 0 0 0 0 0 0 0 0 0 0 0 0 0 0 0 0 0 0 0
Wind_Speed
5 6 12 13 14 15 16 16 16 16 15 15 15 15 15 15 15 14 14 13 12 11 10 8 8 8 8 8 9 9 10 11 11 11 11 11 12 12 12 14 14 12 17
9 8 13 13 14 15 15 16 16 15 15 15 14 14 14 14 14 13 13 12 11 11 10 9 8 8 8 8 9 9 10 10 10 11 11 11 12 12 12 13 13 10 16
11 8 10 12 13 14 15 15 15 15 15 14 14 13 13 13 13 12 12 12 11 10 10 9 8 8 8 8 9 9 10 10 10 10 9 6 8 12 12 13 14 15 15
11 7 8 13 13 13 14 14 14 14 14 13 13 12 12 12 11 11 11 10 10 10 9 9 8 8 8 8 9 9 9 9 9 9 5 4 6 11 12 13 14 14 14
9 6 8 14 13 13 13 13 13 13 12 12 12 11 11 11 10 10 10 9 9 9 9 8 8 8 8 8 8 8 8 9 9 7 4 3 3 11 13 13 13 14 14
8 6 8 13 13 12 12 12 12 12 11 11 10 10 10 10 9 9 9 9 9 8 8 8 8 8 8 8 8 8 8 9 7 4 3 3 4 10 13 13 13 14 13
8 5 6 12 12 12 11 11 11 11 10 10 10 9 9 9 9 9 9 9 8 8 8 8 8 8 8 8 8 8 8 9 5 4 3 4 4 9 12 13 13 13 13
9 6 5 11 11 11 10 10 10 10 10 9 9 9 9 9 9 9 9 9 9 9 8 8 8 9 8 8 8 8 8 7 5 5 5 5 7 9 12 12 12 13 14
7 5 4 4 5 8 9 9 9 9 9 8 9 9 8 8 8 8 8 9 9 10 9 9 9 10 10 9 9 9 9 9 4 3 5 5 9 11 13 13 13 14 14
6 5 4 4 3 2 2 6 7 8 8 8 8 8 9 9 9 9 8 8 10 10 10 11 11 11 11 11 11 11 10 8 5 4 3 5 11 14 14 15 15 15 15
5 4 3 3 2 2 1 3 5 6 6 7 6 8 8 3 3 4 7 9 11 11 12 12 12 13 12 12 13 12 10 4 5 4 4 7 12 15 16 16 16 16 16
5 3 2 2 2 1 1 0 1 1 1 2 2 3 2 1 2 4 5 10 11 11 12 12 13 13 10 5 8 10 5 6 5 5 5 10 12 15 17 17 17 17 17
4 4 2 2 1 1 0 1 1 1 1 1 2 2 1 1 1 2 1 3 4 6 4 6 6 4 5 4 5 5 6 6 5 5 7 13 14 15 17 17 18 19 19
6 4 3 3 2 2 2 1 1 0 1 1 1 2 1 0 1 1 1 2 2 2 3 3 3 4 5 6 7 7 8 6 5 5 7 15 15 16 17 18 19 20 20
6 5 4 4 4 3 3 2 2 2 1 1 2 1 1 1 1 1 1 1 2 2 2 3 3 4 5 6 6 8 8 8 8 8 6 15 17 16 18 19 20 21 21
6 5 4 5 4 4 3 2 1 1 1 1 2 2 2 0 0 0 1 1 1 2 2 2 3 4 4 4 6 7 8 8 9 9 8 10 17 16 17 19 19 21 22
4 3 3 4 4 4 3 2 2 1 1 1 1 2 2 1 1 1 1 1 1 2 2 2 3 3 3 4 5 7 7 8 9 10 9 8 8 14 17 17 18 20 22
4 3 2 4 3 3 3 2 2 1 2 2 2 2 2 1 1 0 1 1 1 1 2 2 2 2 3 3 4 5 6 6 9 10 9 9 8 8 12 17 17 18 21
4 4 3 3 3 3 2 2 2 2 2 2 2 2 2 2 2 1 1 2 2 2 2 2 2 2 3 4 5 5 5 6 8 9 10 11 10 9 7 10 16 18 21
4 3 3 2 2 2 2 2 2 2 2 2 2 2 3 3 3 2 2 2 2 2 2 2 2 2 3 3 5 6 5 7 7 8 10 9 9 11 10 9 8 11 19
4 3 3 2 2 1 1 1 1 1 2 2 2 3 3 3 3 2 2 3 2 2 3 3 2 2 2 2 3 4 5 6 7 7 7 7 9 10 9 9 8 7 7
5 5 4 3 2 1 1 1 1 0 1 2 2 3 4 4 4 3 3 3 3 2 3 2 1 1 2 1 2 3 4 4 3 5 5 6 8 7 9 11 9 9 8
6 6 5 4 3 2 2 1 1 2 2 3 3 3 3 4 4 4 4 3 3 2 3 3 2 2 2 2 1 2 3 3 4 3 4 4 5 5 7 7 10 10 11
7 5 5 4 4 3 2 1 1 1 2 3 2 3 5 4 4 4 4 3 3 2 3 3 2 2 2 2 2 2 3 3 4 5 3 2 4 5 7 7 9 10 10
5 4 4 4 3 3 2 2 2 2 3 3 3 4 5 4 4 4 4 3 3 2 3 3 2 2 2 2 2 2 2 2 3 4 5 4 3 4 5 6 6 7 9
3 3 3 3 3 2 2 2 3 4 4 4 5 4 4 3 4 4 4 3 3 2 3 3 3 3 3 3 3 2 2 2 2 2 4 5 5 4 4 4 5 6 6
Wind_Direction
145 150 149 143 135 130 125 121 118 117 117 118 120 125 131 138 143 147 151 154 154 154 150 143 136 131 129 127 124 122 120 122 126 125 124 122 120 120 120 120 117 117 119
139 146 149 144 137 133 129 125 124 124 124 125 126 130 134 139 144 149 153 156 158 157 153 148 143 139 136 134 132 130 130 132 134 133 131 127 127 125 124 123 121 125 125
137 143 147 144 140 136 133 131 129 130 131 132 134 137 140 145 149 153 157 160 162 161 158 154 150 146 144 142 140 140 140 141 142 136 122 117 129 130 130 130 130 129 129
136 135 146 148 144 141 138 136 135 135 137 138 140 143 147 150 154 158 162 165 166 166 165 163 159 155 152 150 149 149 148 146 142 127 110 121 135 139 138 138 136 134 133
129 130 154 151 148 145 142 140 141 141 143 145 147 150 153 157 161 166 168 172 175 176 174 172 170 166 162 160 159 158 157 153 146 128 120 114 123 148 145 144 142 140 139
124 130 156 151 151 150 149 148 149 150 152 155 157 160 164 168 174 177 180 184 188 190 188 185 181 178 174 172 171 172 171 168 147 129 136 136 146 158 154 152 150 148 147
127 128 149 151 152 154 155 157 157 159 163 167 170 175 179 184 189 192 194 199 204 206 204 199 194 189 186 185 186 186 188 185 146 148 158 166 179 174 165 162 159 156 154
131 122 137 153 155 159 162 164 166 168 173 178 183 189 195 200 205 208 209 211 216 219 218 214 208 201 199 198 200 200 204 205 177 172 177 180 191 189 178 173 168 165 163
122 112 108 127 149 162 168 173 177 180 185 191 197 202 207 212 217 222 223 223 225 228 228 226 221 215 209 209 209 210 213 217 187 177 191 186 196 198 190 183 179 176 173
111 103 97 95 98 112 163 188 191 194 199 204 212 218 222 225 228 232 232 236 238 238 238 236 232 227 220 215 214 215 218 220 203 198 200 198 201 202 200 194 189 186 183
117 91 85 90 91 95 147 217 211 214 217 220 228 235 236 242 252 253 250 248 249 248 245 242 240 236 231 227 223 221 223 213 202 207 207 212 210 210 208 202 198 194 191
128 112 83 93 105 120 207 275 300 279 261 239 247 256 260 255 256 258 268 264 263 261 259 252 246 244 240 229 230 227 218 209 209 213 218 221 221 219 216 208 203 200 197
117 107 112 110 105 126 31 25 5 348 331 321 286 266 259 261 273 276 285 283 286 283 279 275 262 244 236 225 221 221 220 213 214 217 219 224 225 226 224 217 209 205 202
93 80 69 84 92 64 34 16 2 16 359 332 294 282 262 248 259 268 275 289 287 285 286 279 267 254 244 233 227 225 229 225 224 223 223 226 226 228 228 225 217 211 206
90 78 63 66 78 82 66 31 35 26 18 356 335 334 294 230 258 268 270 288 291 290 284 283 272 265 256 246 237 232 231 231 231 228 228 231 229 228 230 230 224 218 212
97 90 82 76 81 85 85 80 62 40 24 21 4 352 358 14 297 318 319 319 308 302 292 284 279 273 264 254 251 243 237 235 235 231 229 235 234 230 230 232 229 224 218
112 108 101 93 86 94 94 90 81 59 45 30 3 355 8 25 16 7 347 325 313 311 305 295 288 276 269 261 258 254 246 239 238 235 231 227 230 232 231 232 231 226 221
137 136 130 121 118 118 119 102 81 60 49 26 6 360 359 352 355 14 314 299 308 314 312 304 293 291 281 274 267 261 254 248 246 241 234 227 222 225 230 232 232 227 223
168 168 161 150 146 126 103 81 64 47 34 14 6 359 350 347 348 354 308 303 320 321 318 311 310 285 285 286 279 266 254 250 249 247 239 232 224 219 218 229 233 228 225
187 187 175 163 144 113 88 64 37 25 13 10 4 350 347 346 348 346 316 315 329 320 312 310 297 283 270 281 290 282 264 252 247 242 241 236 227 222 219 223 226 229 227
200 203 204 189 183 141 89 73 37 344 334 340 338 342 341 341 343 333 317 314 313 288 285 296 293 298 290 297 301 294 278 253 244 243 239 235 229 224 219 218 218 220 223
210 214 215 213 206 195 160 151 161 246 301 293 309 322 331 341 338 334 324 306 297 283 289 290 277 300 296 315 306 309 314 312 274 246 235 235 235 226 223 221 217 216 219
220 217 215 214 212 210 184 112 51 19 350 336 325 320 323 327 324 319 312 302 291 258 261 266 253 238 275 300 266 283 307 310 319 290 251 244 240 230 228 223 221 219 218
225 213 206 208 211 212 180 161 186 239 271 270 280 291 304 309 312 311 308 306 295 270 258 261 240 226 225 267 292 255 250 267 291 310 302 274 261 246 235 229 227 223 217
212 199 200 200 211 210 192 189 208 243 250 275 289 292 297 302 303 304 303 301 301 285 272 264 258 232 220 229 245 267 274 271 257 282 301 319 309 266 246 233 225 222 217
178 173 176 185 218 224 217 217 221 248 267 283 288 289 293 298 300 303 301 293 291 288 287 279 258 243 231 233 239 238 242 261 281 285 294 308 306 294 270 242 230 225 218